Regional Weather Roundup
Issued by NWS

Home | Current Version | Previous Version | Graphics & Text | Print | Product List | Glossary On
Versions: 1 2 3 4 5 6 7 8 9 10 11 12 13 14 15 16 17 18 19 20 21 22 23 24 25 26 27 28 29 30 31 32 33 34 35 36 37 38 39 40 41 42 43 44 45 46 47 48 49 50
000
ASUS43 KDTX 291710
RWRMI
MICHIGAN HOURLY REGIONAL WEATHER ROUNDUP
NATIONAL WEATHER SERVICE DETROIT/PONTIAC MI
1200 PM EST THU JAN 29 2015

NOTE: "FAIR" INDICATES FEW OR NO CLOUDS BELOW 12,000 FEET WITH NO
SIGNIFICANT WEATHER AND/OR OBSTRUCTION TO VISIBILITY.

MIZ047>049-052>055-059>063-066>070-074>076-081>083-291800-
SOUTHEAST LOWER MICHIGAN

CITY           SKY/WX    TMP DP  RH WIND       PRES   REMARKS
ADRIAN         CLOUDY    35  29  78 W3        29.73F
ALMA           CLOUDY    28  26  93 CALM      29.77S FOG
ANN ARBOR      CLOUDY    33  27  78 W5        29.73F
BAD AXE        LGT SNOW  27  24  89 SW5       29.75F
DETROIT CITY   CLOUDY    36  26  67 SW8       29.73F
DETROIT        CLOUDY    34  27  75 S5        29.74F
FLINT          LGT RAIN  33  24  69 W6        29.75S
GROSSE ILE     CLOUDY    34  30  86 S6        29.72F
HILLSDALE      CLOUDY    34  30  83 W5        29.71S
HOWELL         CLOUDY    31  26  82 SW5       29.72F

CITY           SKY/WX    TMP DP  RH WIND       PRES   REMARKS
JACKSON        CLOUDY    33  27  78 NW3       29.73S
LAMBERTVILLE   CLOUDY    37  32  81 SW7       29.73F
LANSING        CLOUDY    31  26  82 NW5       29.75S
LAPEER         NOT AVBL
MASON          CLOUDY    31  26  78 CALM      29.74S
MONROE         CLOUDY    36  30  80 SW3       29.72F
MT. CLEMENS    CLOUDY    32  25  75 S3        29.72F
PONTIAC        CLOUDY    31  23  72 SW3       29.71F
PORT HOPE        N/A     28  22  78 CALM      29.75S
PORT HURON     CLOUDY    32  23  69 S6        29.74F
TRI CITIES     CLOUDY    29  25  85 N3        29.77S FOG
YPSILANTI      CLOUDY    36  27  69 CALM      29.73F
$$
MIZ043>046-050>051-056>058-064>065-071>073-077>080-291800-
SOUTHWEST LOWER MICHIGAN

CITY           SKY/WX    TMP DP  RH WIND       PRES   REMARKS
BATTLE CREEK   LGT SNOW  35  27  72 NW8       29.75R
BENTON HARBOR  LGT SNOW  33  32  96 VRB6G21   29.82R FOG
BIG RAPIDS     LGT SNOW  28  27  96 CALM      29.77R
COLDWATER      CLOUDY    35  29  79 W7        29.73S
HOLLAND        LGT SNOW  33  29  85 NW9       29.80R FOG
GRAND RAPIDS   LGT SNOW  31  27  85 NW6       29.78R VSB 1
KALAMAZOO      SNOW      33  30  88 NW10      29.76R VSB 1/2
MARSHALL       LGT SNOW  34  28  77 W5        29.73S
MUSKEGON       LGT SNOW  32  28  85 NW10      29.81R VSB 1
$$
MIZ016>042-291800-
NORTHERN LOWER MICHIGAN

CITY           SKY/WX    TMP DP  RH WIND       PRES   REMARKS
ALPENA         LGT SNOW  25  22  88 VRB3      29.77F FOG
BEAVER ISLAND  CLOUDY    30  28  94 CALM      29.80S FOG
BELLAIRE       CLOUDY    28  25  87 CALM      29.80S
CADILLAC       LGT SNOW  29  25  86 W5        29.74S
CHARLEVOIX     CLOUDY    28  27  93 W7        29.82S FOG
FRANKFORT      CLOUDY    32  29  88 N14       29.82R
GAYLORD        LGT SNOW  26  24  92 W7        29.74S FOG
GRAYLING       LGT SNOW  28  26  91 W3        29.76S VSB 1
HARBOR SPRINGS CLOUDY    26  23  91 SW3       29.79S FOG
HOUGHTON LAKE  LGT SNOW  24  21  88 W6        29.75S FOG
MANISTEE       CLOUDY    32  27  80 N12G22    29.82S
OSCODA         LGT SNOW  26  24  93 W5        29.75F
PELLSTON       CLOUDY    27  23  85 W6        29.79S
TRAVERSE CITY  CLOUDY    30  26  85 W5        29.79R FOG
$$
MIZ007>008-015-291800-
EASTERN UPPER MICHIGAN

CITY           SKY/WX    TMP DP  RH WIND       PRES   REMARKS
KINROSS        CLOUDY    27  25  93 W6        29.76F
MACKINAC ISLAN CLOUDY    27  26  96 W8        29.77S FOG
NEWBERRY       CLOUDY    27  26  99 W9        29.76F FOG
S. S. MARIE    CLOUDY    26  22  84 CALM      29.76F
$$
MIZ004>006-011>014-085-291800-
CENTRAL UPPER MICHIGAN

CITY           SKY/WX    TMP DP  RH WIND       PRES   REMARKS
MANISTIQUE     CLOUDY    31  29  90 NW12G21   29.81R
ESCANABA       CLOUDY    30  25  80 NW12      29.87R
MENOMINEE      CLOUDY    32  25  74 N16G24    29.88R
SAWYER-GWINN   CLOUDY    28  23  80 N20G25    29.84R
$$
MIZ001>003-009>011-084-291800-
WESTERN UPPER MICHIGAN

CITY           SKY/WX    TMP DP  RH WIND       PRES   REMARKS
HOUGHTON       CLOUDY    25  19  78 N21G32    29.93R
COPPER HARBOR    N/A     22  17  81 NE33G46   29.94R
IRONWOOD       CLOUDY    25  19  80 NW20G26   30.01R
$$

ABBREVIATIONS USED IN REMARKS
   TC - TEMPERATURE IN CELSIUS
  WCI - WIND CHILL INDEX
   HX - HEAT INDEX
  VSB - VISIBILITY



USA.gov is the U.S. government's official web portal to all federal, state and local government web resources and services.